Location: Kosice
(0.0000°N, 21.2500°E)
Time: 00:37:30
(UTC+02:00)

Cosmos 1892 - Visible Passes

Search period start: 17 May 2021 00:00
Search period end: 27 May 2021 00:00
Orbit: 503 x 523 km, 82.5° (Epoch: 16 May)

Date Brightness Start Highest point End Pass type
(mag) Time Alt. Az. Time Alt. Az. Time Alt. Az.
17 May 5.8 04:11:52 10° ESE 04:12:51 11° E 04:13:50 10° ENE visible
17 May 4.1 05:46:42 15° WSW 05:48:13 18° W 05:50:51 10° NW visible
18 May 3.7 05:31:56 24° W 05:32:22 24° W 05:35:27 10° NNW visible
19 May 3.5 05:17:05 31° WNW 05:17:05 31° WNW 05:19:54 10° NNW visible
20 May 3.9 05:02:10 28° NNW 05:02:10 28° NNW 05:04:15 10° NNW visible
21 May 4.6 04:47:10 21° N 04:47:10 21° N 04:48:31 10° N visible
22 May 5.2 04:32:07 14° N 04:32:07 14° N 04:32:43 10° N visible
